EW3966 Weather Reports


Display with metric or nautical units.
time (UTC)temp
F
wind
direction
speed
MPH
gust
MPH
rain 1hr
in
rain 24hr
in
rain mn
in
humidity
%
barometer
mb
20260904071509 52 265 0.0 1.0 0.00 0.00 0.00 94 1018.7
20260904071005 52 265 0.0 2.0 0.00 0.00 0.00 94 1018.8
20260904070505 52 265 0.0 2.0 0.00 0.00 0.00 94 1018.8
20260904070007 51 265 0.0 2.0 0.00 0.00 0.00 94 1018.8
20260904065503 51 265 0.0 1.0 0.00 0.00 0.00 94 1018.9
20260904065001 51 265 0.0 2.0 0.00 0.00 0.00 94 1018.9
20260904064002 51 265 0.0 2.0 0.00 0.00 0.00 93 1018.9
20260904063502 51 265 1.0 2.0 0.00 0.00 0.00 93 1019.0
20260904063002 51 265 1.0 2.0 0.00 0.00 0.00 93 1018.9
20260904062504 51 265 0.0 4.0 0.00 0.00 0.00 93 1019.0
20260904062004 51 265 1.0 4.0 0.00 0.00 0.00 93 1019.0
20260904061501 51 265 1.0 4.0 0.00 0.00 0.00 93 1019.0
20260904061100 51 265 0.0 3.0 0.00 0.00 0.00 93 1019.0
20260904060601 51 270 1.0 4.0 0.00 0.00 0.00 93 1019.0
20260904060100 51 273 2.0 5.0 0.00 0.00 0.00 93 1019.0
20260904055600 51 259 2.0 5.0 0.00 0.00 0.00 93 1019.1
20260904055059 51 259 3.0 6.0 0.00 0.00 0.00 93 1019.0
20260904054100 51 270 3.0 6.0 0.00 0.00 0.00 93 1019.1
20260904053559 51 283 2.0 6.0 0.00 0.00 0.00 93 1019.1
20260904053103 51 246 3.0 6.0 0.00 0.00 0.00 93 1019.1
20260904052558 51 271 3.0 6.0 0.00 0.00 0.00 93 1019.2
20260904052058 51 270 3.0 6.0 0.00 0.00 0.00 93 1019.3
20260904051609 51 253 4.0 7.0 0.00 0.00 0.00 93 1019.3
20260904051056 51 254 4.0 7.0 0.00 0.00 0.00 93 1019.4
20260904050556 51 258 3.0 5.0 0.00 0.00 0.00 93 1019.4
20260904050056 51 264 3.0 5.0 0.00 0.00 0.00 93 1019.4
20260904045555 51 260 3.0 5.0 0.00 0.00 0.00 93 1019.4
20260904045055 50 261 2.0 5.0 0.00 0.00 0.00 93 1019.5
20260904044054 50 258 3.0 7.0 0.00 0.00 0.00 92 1019.7
20260904043552 50 259 4.0 7.0 0.00 0.00 0.00 92 1019.7
20260904043105 50 229 3.0 6.0 0.00 0.00 0.00 92 1019.8
20260904042553 50 249 3.0 6.0 0.00 0.00 0.00 92 1019.8
20260904042053 50 260 3.0 6.0 0.00 0.00 0.00 92 1019.8
20260904041551 50 264 4.0 6.0 0.00 0.00 0.00 92 1019.8
20260904041050 50 257 3.0 6.0 0.00 0.00 0.00 92 1019.9
20260904040549 50 261 3.0 6.0 0.00 0.00 0.00 92 1019.9
20260904040049 50 256 3.0 5.0 0.00 0.00 0.00 92 1020.0
20260904035548 50 265 3.0 6.0 0.00 0.00 0.00 92 1020.0
20260904035047 50 291 3.0 6.0 0.00 0.00 0.00 91 1020.1
20260904034050 50 266 3.0 6.0 0.00 0.00 0.00 91 1020.2
20260904033546 50 268 4.0 7.0 0.00 0.00 0.00 91 1020.3
20260904033046 50 260 4.0 7.0 0.00 0.00 0.00 91 1020.3
20260904032548 50 270 3.0 7.0 0.00 0.00 0.00 91 1020.4
20260904032047 50 290 3.0 7.0 0.00 0.00 0.00 91 1020.4
20260904031544 50 255 4.0 7.0 0.00 0.00 0.00 91 1020.4
20260904031046 50 259 3.0 6.0 0.00 0.00 0.00 91 1020.4
20260904030542 51 247 3.0 7.0 0.00 0.00 0.00 91 1020.5
20260904030041 51 272 4.0 7.0 0.00 0.00 0.00 90 1020.5
20260904025540 51 260 4.0 6.0 0.00 0.00 0.00 90 1020.6
20260904025039 51 267 4.0 6.0 0.00 0.00 0.00 90 1020.6
20260904024041 51 239 3.0 8.0 0.00 0.00 0.00 90 1020.6
20260904023537 51 278 4.0 8.0 0.00 0.00 0.00 90 1020.6
20260904023038 51 293 4.0 6.0 0.00 0.00 0.00 90 1020.5
20260904022535 51 265 3.0 7.0 0.00 0.00 0.00 89 1020.5
20260904022037 52 270 4.0 7.0 0.00 0.00 0.00 89 1020.5
20260904021536 52 261 3.0 7.0 0.00 0.00 0.00 89 1020.6
20260904021034 52 293 3.0 7.0 0.00 0.00 0.00 90 1020.7
20260904020534 52 256 3.0 7.0 0.00 0.00 0.00 90 1020.7
20260904020034 52 270 4.0 8.0 0.00 0.00 0.00 90 1020.6
20260904015536 52 270 5.0 9.0 0.00 0.00 0.00 90 1020.7
20260904015036 52 303 4.0 10.0 0.00 0.00 0.00 90 1020.7
20260904014033 52 264 4.0 8.0 0.00 0.00 0.00 90 1020.8
20260904013533 52 259 3.0 8.0 0.00 0.00 0.00 90 1020.8
20260904013039 52 282 4.0 7.0 0.00 0.00 0.00 90 1020.9
20260904012533 52 255 3.0 7.0 0.00 0.00 0.00 89 1020.8
20260904012033 52 288 3.0 7.0 0.00 0.00 0.00 89 1020.8
20260904011532 52 280 3.0 6.0 0.00 0.00 0.00 89 1020.9
20260904011036 52 269 2.0 6.0 0.00 0.00 0.00 89 1021.0
20260904010532 52 262 2.0 6.0 0.00 0.00 0.00 89 1021.0
20260904010031 52 277 3.0 6.0 0.00 0.00 0.00 89 1021.0
20260904005531 52 286 2.0 6.0 0.00 0.00 0.00 89 1021.1
20260904005030 52 247 3.0 6.0 0.00 0.00 0.00 88 1021.1
20260904004030 52 268 3.0 5.0 0.00 0.00 0.00 88 1021.2
20260904003533 52 262 2.0 6.0 0.00 0.00 0.00 88 1021.2
20260904003030 52 285 2.0 6.0 0.00 0.00 0.00 88 1021.4
20260904002529 52 271 3.0 5.0 0.00 0.00 0.00 88 1021.4
20260904002029 52 289 2.0 6.0 0.00 0.00 0.00 88 1021.4
20260904001528 52 259 3.0 6.0 0.00 0.00 0.00 88 1021.5
20260904001028 52 267 3.0 5.0 0.00 0.00 0.00 88 1021.5
20260904000529 52 272 2.0 6.0 0.00 0.00 0.00 88 1021.5
20260904000028 52 279 3.0 6.0 0.00 0.00 0.00 88 1021.5
20260903235529 52 278 2.0 5.0 0.00 0.00 0.00 88 1021.5
20260903235028 52 258 2.0 5.0 0.00 0.00 0.00 87 1021.5
20260903234129 52 256 2.0 5.0 0.00 0.00 0.00 87 1021.5
20260903233532 52 259 1.0 5.0 0.00 0.00 0.00 87 1021.5
20260903233027 52 264 1.0 5.0 0.00 0.00 0.00 87 1021.5
20260903232527 53 278 1.0 5.0 0.00 0.00 0.00 86 1021.6
20260903232031 53 281 2.0 4.0 0.00 0.00 0.00 86 1021.6
20260903231531 53 278 0.0 2.0 0.00 0.00 0.00 86 1021.6
20260903231027 53 282 0.0 4.0 0.00 0.00 0.00 85 1021.5
20260903230527 54 268 0.0 4.0 0.00 0.00 0.00 85 1021.6
20260903230033 54 267 0.0 4.0 0.00 0.00 0.00 84 1021.5
20260903225528 54 285 1.0 4.0 0.00 0.00 0.00 84 1021.5
20260903225026 54 295 0.0 6.0 0.00 0.00 0.00 84 1021.5
20260903224028 54 219 0.0 4.0 0.00 0.00 0.00 83 1021.5
20260903223529 55 212 0.0 5.0 0.00 0.00 0.00 83 1021.5
20260903223028 55 345 0.0 6.0 0.00 0.00 0.00 83 1021.4
20260903222528 55 22 0.0 5.0 0.00 0.00 0.00 83 1021.4
20260903222028 55 212 1.0 5.0 0.00 0.00 0.00 82 1021.5
20260903221527 55 62 1.0 4.0 0.00 0.00 0.00 82 1021.4
20260903221027 55 106 0.0 4.0 0.00 0.00 0.00 82 1021.3
20260903220527 56 182 0.0 2.0 0.00 0.00 0.00 81 1021.3
20260903220032 56 234 0.0 2.0 0.00 0.00 0.00 81 1021.3
20260903215526 56 112 0.0 4.0 0.00 0.00 0.00 81 1021.2
20260903215025 56 118 0.0 5.0 0.00 0.00 0.00 81 1021.2
20260903214025 57 195 0.0 3.0 0.00 0.00 0.00 80 1021.3
20260903213528 57 155 0.0 2.0 0.00 0.00 0.00 80 1021.3
20260903213024 57 232 0.0 5.0 0.00 0.00 0.00 80 1021.4
20260903212525 57 72 1.0 5.0 0.00 0.00 0.00 79 1021.3
20260903212025 58 110 1.0 4.0 0.00 0.00 0.00 79 1021.3
20260903211524 58 92 0.0 4.0 0.00 0.00 0.00 78 1021.2
20260903211024 58 125 1.0 6.0 0.00 0.00 0.00 78 1021.3
20260903210524 58 160 1.0 6.0 0.00 0.00 0.00 77 1021.3
20260903210030 59 230 1.0 6.0 0.00 0.00 0.00 77 1021.3
20260903205524 58 111 0.0 7.0 0.00 0.00 0.00 77 1021.3
20260903205023 59 170 1.0 4.0 0.00 0.00 0.00 78 1021.3
20260903204024 58 56 0.0 5.0 0.00 0.00 0.00 78 1021.4
20260903203524 58 72 0.0 5.0 0.00 0.00 0.00 78 1021.3
20260903203027 59 71 0.0 7.0 0.00 0.00 0.00 77 1021.3
20260903202524 59 70 2.0 7.0 0.00 0.00 0.00 76 1021.4
20260903202025 59 44 1.0 4.0 0.00 0.00 0.00 76 1021.4
20260903201524 59 75 0.0 4.0 0.00 0.00 0.00 77 1021.3
20260903201023 59 223 0.0 7.0 0.00 0.00 0.00 77 1021.3
20260903200523 59 185 0.0 7.0 0.00 0.00 0.00 77 1021.4
20260903200024 59 79 1.0 6.0 0.00 0.00 0.00 77 1021.2
20260903195525 59 108 1.0 6.0 0.00 0.00 0.00 77 1021.3
20260903195022 59 50 0.0 6.0 0.00 0.00 0.00 77 1021.3
20260903194022 59 50 1.0 7.0 0.00 0.00 0.00 77 1021.4
20260903193521 59 73 2.0 7.0 0.00 0.00 0.00 76 1021.5
20260903193021 59 140 0.0 6.0 0.00 0.00 0.00 77 1021.5
20260903192522 59 89 2.0 7.0 0.00 0.00 0.00 76 1021.5
20260903192023 59 114 1.0 7.0 0.00 0.00 0.00 76 1021.5
20260903191520 59 84 1.0 6.0 0.00 0.00 0.00 76 1021.6
20260903191019 59 79 2.0 6.0 0.00 0.00 0.00 76 1021.6
20260903190518 59 83 2.0 7.0 0.00 0.00 0.00 76 1021.7
20260903190017 59 54 2.0 6.0 0.00 0.00 0.00 77 1021.8
20260903185518 59 99 2.0 9.0 0.00 0.00 0.00 76 1021.7
20260903185021 59 76 2.0 9.0 0.00 0.00 0.00 76 1021.8
20260903184015 59 62 2.0 6.0 0.00 0.00 0.00 76 1021.7
20260903183516 59 66 2.0 6.0 0.00 0.00 0.00 76 1021.8
20260903183015 59 82 1.0 6.0 0.00 0.00 0.00 76 1021.9
20260903182518 59 67 3.0 7.0 0.00 0.00 0.00 76 1021.9
20260903182015 59 72 4.0 7.0 0.00 0.00 0.00 76 1021.8
20260903181514 59 103 2.0 8.0 0.00 0.00 0.00 76 1021.9
20260903181014 59 85 2.0 8.0 0.00 0.00 0.00 75 1021.9
20260903180513 59 116 1.0 8.0 0.00 0.00 0.00 76 1021.9
20260903180012 59 113 1.0 8.0 0.00 0.00 0.00 76 1022.0
20260903175516 59 93 2.0 8.0 0.00 0.00 0.00 76 1021.9
20260903175012 59 85 3.0 9.0 0.00 0.00 0.00 75 1022.0
20260903174011 59 78 0.0 9.0 0.00 0.00 0.00 76 1022.1
20260903173510 59 51 2.0 9.0 0.00 0.00 0.00 75 1022.2
20260903173017 59 90 2.0 7.0 0.00 0.00 0.00 75 1022.1
20260903172513 59 85 3.0 7.0 0.00 0.00 0.00 75 1022.3
20260903172009 59 54 1.0 7.0 0.00 0.00 0.00 76 1022.4
20260903171508 59 132 2.0 9.0 0.00 0.00 0.00 76 1022.4
20260903171006 59 124 2.0 9.0 0.00 0.00 0.00 76 1022.4
20260903170506 59 97 2.0 8.0 0.00 0.00 0.00 77 1022.5
20260903170010 59 74 3.0 8.0 0.00 0.00 0.00 76 1022.5
20260903165505 59 91 4.0 8.0 0.00 0.00 0.00 77 1022.5
20260903165003 59 102 2.0 8.0 0.00 0.00 0.00 78 1022.5
20260903164003 59 56 5.0 8.0 0.00 0.00 0.00 78 1022.6
20260903163504 58 87 3.0 8.0 0.00 0.00 0.00 77 1022.6
20260903163002 58 51 4.0 9.0 0.00 0.00 0.00 78 1022.7
20260903162502 58 65 3.0 9.0 0.00 0.00 0.00 79 1022.7
20260903162001 58 83 4.0 8.0 0.00 0.00 0.00 78 1022.7
20260903161500 58 71 4.0 9.0 0.00 0.00 0.00 78 1022.7
20260903161101 58 85 5.0 9.0 0.00 0.00 0.00 79 1022.7
20260903160600 58 68 5.0 9.0 0.00 0.00 0.00 78 1022.6
20260903155601 58 81 5.0 9.0 0.00 0.00 0.00 78 1022.6
20260903155100 57 62 4.0 8.0 0.00 0.00 0.00 79 1022.6
20260903154002 57 80 4.0 8.0 0.00 0.00 0.00 78 1022.7
20260903153502 57 64 5.0 8.0 0.00 0.00 0.00 79 1022.7
20260903153002 57 74 4.0 8.0 0.00 0.00 0.00 79 1022.7
20260903152502 57 78 5.0 9.0 0.00 0.00 0.00 78 1022.7
20260903152002 57 87 5.0 9.0 0.00 0.00 0.00 79 1022.8
20260903151501 57 61 4.0 8.0 0.00 0.00 0.00 79 1022.9
20260903151000 57 58 4.0 8.0 0.00 0.00 0.00 79 1023.0
20260903150602 57 78 4.0 8.0 0.00 0.00 0.00 78 1023.0
20260903150101 57 85 4.0 7.0 0.00 0.00 0.00 78 1023.0
20260903150002 57 84 4.0 7.0 0.00 0.00 0.00 79 1023.0
20260903145600 57 58 4.0 7.0 0.00 0.00 0.00 78 1023.1
20260903145103 57 79 4.0 7.0 0.00 0.00 0.00 78 1023.1
20260903144059 57 72 3.0 6.0 0.00 0.00 0.00 77 1023.2
20260903143559 57 50 3.0 6.0 0.00 0.00 0.00 79 1023.1
20260903143109 57 73 3.0 7.0 0.00 0.00 0.00 79 1023.1
20260903142558 57 64 3.0 7.0 0.00 0.00 0.00 79 1023.2
20260903142101 57 69 3.0 8.0 0.00 0.00 0.00 79 1023.3
20260903141558 57 76 3.0 8.0 0.00 0.00 0.00 79 1023.3
20260903141057 57 78 3.0 7.0 0.00 0.00 0.00 79 1023.3
20260903140557 57 85 2.0 7.0 0.00 0.00 0.00 79 1023.3
20260903140058 57 81 4.0 7.0 0.00 0.00 0.00 79 1023.4
20260903135557 57 66 4.0 7.0 0.00 0.00 0.00 79 1023.4
20260903135056 57 69 5.0 7.0 0.00 0.00 0.00 79 1023.5
20260903134055 57 81 4.0 8.0 0.00 0.00 0.00 79 1023.4
20260903133555 57 73 4.0 8.0 0.00 0.00 0.00 79 1023.5
20260903133108 57 71 3.0 7.0 0.00 0.00 0.00 79 1023.5
20260903132558 58 78 4.0 7.0 0.00 0.00 0.00 78 1023.4
20260903132056 58 56 3.0 6.0 0.00 0.00 0.00 79 1023.5
20260903131607 58 83 4.0 6.0 0.00 0.00 0.00 78 1023.5
20260903131053 58 78 3.0 6.0 0.00 0.00 0.00 78 1023.5
20260903130553 57 65 2.0 7.0 0.00 0.00 0.00 81 1023.4
20260903130105 57 81 2.0 7.0 0.00 0.00 0.00 79 1023.4
20260903125552 57 51 3.0 7.0 0.00 0.00 0.00 78 1023.4
20260903125052 58 68 4.0 7.0 0.00 0.00 0.00 79 1023.3
20260903124055 57 71 3.0 7.0 0.00 0.00 0.00 80 1023.4
20260903123552 57 62 3.0 7.0 0.00 0.00 0.00 80 1023.3
20260903123054 57 75 3.0 6.0 0.00 0.00 0.00 80 1023.3
20260903122552 57 44 3.0 6.0 0.00 0.00 0.00 80 1023.4
20260903122052 57 76 2.0 5.0 0.00 0.00 0.00 80 1023.4
20260903121551 57 79 1.0 6.0 0.00 0.00 0.00 81 1023.5
20260903121050 57 49 2.0 6.0 0.00 0.00 0.00 81 1023.4
20260903120550 57 83 1.0 6.0 0.00 0.00 0.00 81 1023.4
20260903120049 57 51 2.0 6.0 0.00 0.00 0.00 81 1023.4
20260903115549 57 48 3.0 5.0 0.00 0.00 0.00 81 1023.4
20260903115049 57 69 3.0 5.0 0.00 0.00 0.00 81 1023.4
20260903114047 56 192 0.0 2.0 0.00 0.00 0.00 83 1023.4
20260903113546 55 241 0.0 2.0 0.00 0.00 0.00 84 1023.4
20260903113047 55 241 1.0 4.0 0.00 0.00 0.00 85 1023.3
20260903112547 54 188 0.0 3.0 0.00 0.00 0.00 85 1023.3
20260903112043 54 257 0.0 2.0 0.00 0.00 0.00 86 1023.3
20260903111543 53 274 0.0 5.0 0.00 0.00 0.00 87 1023.2
20260903111043 53 274 0.0 5.0 0.00 0.00 0.00 88 1023.3
20260903110539 52 257 0.0 4.0 0.00 0.00 0.00 89 1023.3
20260903110037 52 247 1.0 4.0 0.00 0.00 0.00 90 1023.3
20260903105537 51 259 0.0 4.0 0.00 0.00 0.00 90 1023.3
20260903105035 51 251 1.0 5.0 0.00 0.00 0.00 91 1023.3
20260903104035 50 269 0.0 2.0 0.00 0.00 0.00 92 1023.3
20260903103533 49 259 0.0 4.0 0.00 0.00 0.00 93 1023.3
20260903103032 48 263 0.0 4.0 0.00 0.00 0.00 93 1023.3
20260903102534 48 261 0.0 4.0 0.00 0.00 0.00 93 1023.4
20260903102031 47 259 0.0 4.0 0.00 0.00 0.00 94 1023.3
20260903101527 47 255 1.0 5.0 0.00 0.00 0.00 94 1023.3
20260903101026 46 255 2.0 5.0 0.00 0.00 0.00 94 1023.4
20260903100525 46 264 1.0 5.0 0.00 0.00 0.00 94 1023.3
20260903100025 45 261 3.0 5.0 0.00 0.00 0.00 94 1023.4
20260903095522 45 258 2.0 5.0 0.00 0.00 0.00 95 1023.4
20260903095023 44 259 3.0 5.0 0.00 0.00 0.00 94 1023.4
20260903094020 43 257 2.0 5.0 0.00 0.00 0.00 94 1023.4
20260903093520 42 257 2.0 5.0 0.00 0.00 0.00 94 1023.4
20260903093023 42 259 3.0 5.0 0.00 0.00 0.00 94 1023.3
20260903092521 42 255 2.0 5.0 0.00 0.00 0.00 94 1023.2
20260903092019 42 256 2.0 5.0 0.00 0.00 0.00 94 1023.3
20260903091520 42 260 3.0 4.0 0.00 0.00 0.00 94 1023.2
20260903091019 42 269 1.0 5.0 0.00 0.00 0.00 94 1023.2
20260903090518 42 258 2.0 5.0 0.00 0.00 0.00 94 1023.1
20260903090018 42 257 3.0 5.0 0.00 0.00 0.00 94 1023.1
20260903085516 42 261 3.0 5.0 0.00 0.00 0.00 94 1023.1
20260903085016 42 252 3.0 5.0 0.00 0.00 0.00 94 1023.0
20260903084016 40 254 2.0 4.0 0.00 0.00 0.00 94 1022.9
20260903083516 40 263 2.0 4.0 0.00 0.00 0.00 94 1022.9
20260903083015 40 257 2.0 4.0 0.00 0.00 0.00 93 1022.9
20260903082515 40 257 1.0 3.0 0.00 0.00 0.00 93 1022.9
20260903082015 41 260 2.0 4.0 0.00 0.00 0.00 94 1022.9
20260903081516 41 259 2.0 4.0 0.00 0.00 0.00 94 1022.9
20260903081015 40 268 2.0 4.0 0.00 0.00 0.00 94 1022.9
20260903080514 40 257 2.0 4.0 0.00 0.00 0.00 93 1023.0
20260903080014 40 254 1.0 4.0 0.00 0.00 0.00 93 1023.0
20260903075515 41 254 1.0 2.0 0.00 0.00 0.00 93 1022.9
20260903075014 41 254 1.0 3.0 0.00 0.00 0.00 93 1022.9
20260903074015 41 261 2.0 3.0 0.00 0.00 0.00 93 1023.0
20260903073514 40 258 2.0 3.0 0.00 0.00 0.00 93 1022.9
20260903073015 40 256 2.0 4.0 0.00 0.00 0.00 92 1022.8
20260903072514 41 256 1.0 4.0 0.00 0.00 0.00 93 1022.7
20260903072014 42 234 1.0 4.0 0.00 0.00 0.00 93 1022.7